KB6CYS Weather Reports


time (UTC)temp
F
wind
direction
speed
knots
gust
knots
rain 1hr
in
rain 24hr
in
rain mn
in
humidity
%
barometer
mb
20260507033503 63 285 4.3 7.8 0.00 0.00 0.00 1016.3
20260507033024 63 272 3.5 7.0 0.00 0.00 0.00 1016.0
20260507032502 64 282 2.6 6.1 0.00 0.00 0.00 1016.3
20260507032002 64 260 2.6 6.1 0.00 0.00 0.00 1016.3
20260507031501 64 280 2.6 7.8 0.00 0.00 0.00 1016.3
20260507031002 64 281 4.3 7.8 0.00 0.00 0.00 1016.3
20260507030502 64 282 5.2 7.8 0.00 0.00 0.00 1016.3
20260507030023 64 276 4.3 8.7 0.00 0.00 0.00 1016.3
20260507025503 64 279 5.2 8.7 0.00 0.00 0.00 1016.3
20260507025002 65 281 4.3 7.8 0.00 0.00 0.00 1016.6
20260507024504 65 267 4.3 8.7 0.00 0.00 0.00 1016.0
20260507024001 65 267 5.2 8.7 0.00 0.00 0.00 1016.3
20260507023502 65 283 5.2 10.4 0.00 0.00 0.00 1015.6
20260507023023 65 254 4.3 10.4 0.00 0.00 0.00 1015.3
20260507022503 66 257 5.2 9.6 0.00 0.00 0.00 1016.0
20260507022001 66 267 5.2 9.6 0.00 0.00 0.00 1015.3
20260507021503 66 276 5.2 8.7 0.00 0.00 0.00 1015.6
20260507021002 67 276 6.1 8.7 0.00 0.00 0.00 1015.3
20260507020501 67 287 3.5 8.7 0.00 0.00 0.00 1015.3
20260507020002 68 276 5.2 9.6 0.00 0.00 0.00 1014.6
20260507015502 68 264 6.1 9.6 0.00 0.00 0.00 1015.3
20260507015002 68 276 5.2 12.2 0.00 0.00 0.00 1015.3
20260507014502 68 258 4.3 12.2 0.00 0.00 0.00 1015.3
20260507014023 69 279 6.1 12.2 0.00 0.00 0.00 1015.6
20260507013501 69 293 4.3 10.4 0.00 0.00 0.00 1014.9
20260507013004 69 282 6.1 10.4 0.00 0.00 0.00 1015.6
20260507012501 69 291 6.1 10.4 0.00 0.00 0.00 1015.3
20260507012002 69 276 6.1 12.2 0.00 0.00 0.00 1015.6
20260507011502 70 278 6.1 12.2 0.00 0.00 0.00 1015.3
20260507011004 70 273 5.2 11.3 0.00 0.00 0.00 1015.3
20260507010503 70 260 7.0 11.3 0.00 0.00 0.00 1014.9
20260507010002 71 273 6.1 11.3 0.00 0.00 0.00 1015.3
20260507005524 71 272 7.0 11.3 0.00 0.00 0.00 1014.9
20260507005002 72 258 7.0 10.4 0.00 0.00 0.00 1014.9
20260507004502 72 247 7.0 12.2 0.00 0.00 0.00 1015.3
20260507004002 72 274 6.1 12.2 0.00 0.00 0.00 1014.9
20260507003502 72 291 4.3 8.7 0.00 0.00 0.00 1014.9
20260507003001 72 273 5.2 12.2 0.00 0.00 0.00 1014.3
20260507002502 72 260 6.1 12.2 0.00 0.00 0.00 1014.3
20260507002002 72 279 5.2 11.3 0.00 0.00 0.00 1014.3
20260507001502 72 278 6.1 11.3 0.00 0.00 0.00 1014.3
20260507001003 72 262 6.1 11.3 0.00 0.00 0.00 1013.9
20260507000524 73 261 5.2 10.4 0.00 0.00 0.00 1013.6
20260507000002 74 251 7.0 10.4 0.00 0.00 0.00 1013.9
20260506235501 74 258 5.2 10.4 0.00 0.00 0.00 1014.3
20260506235003 75 212 7.0 10.4 0.00 0.00 0.00 1014.3
20260506234524 75 222 5.2 13.0 0.00 0.00 0.00 1014.3
20260506234024 74 252 6.1 13.0 0.00 0.00 0.00 1013.9
20260506233502 75 213 4.3 8.7 0.00 0.00 0.00 1013.6
20260506233002 75 218 5.2 13.0 0.00 0.00 0.00 1013.2
20260506232502 75 208 6.1 13.0 0.00 0.00 0.00 1014.3
20260506232003 75 214 6.1 11.3 0.00 0.00 0.00 1013.9
20260506231502 75 210 6.1 12.2 0.00 0.00 0.00 1013.9
20260506231001 74 226 7.8 12.2 0.00 0.00 0.00 1013.9
20260506230502 75 204 6.1 13.0 0.00 0.00 0.00 1013.9
20260506230002 75 215 7.0 13.0 0.00 0.00 0.00 1014.6
20260506225523 75 184 6.1 12.2 0.00 0.00 0.00 1013.9
20260506225003 75 196 5.2 12.2 0.00 0.00 0.00 1013.9
20260506224501 74 184 6.1 12.2 0.00 0.00 0.00 1013.6
20260506224002 75 209 7.8 11.3 0.00 0.00 0.00 1014.3
20260506223502 74 203 6.1 12.2 0.00 0.00 0.00 1014.9
20260506223001 74 222 7.0 12.2 0.00 0.00 0.00 1014.3
20260506222524 74 225 6.1 10.4 0.00 0.00 0.00 1014.3
20260506222003 73 235 4.3 11.3 0.00 0.00 0.00 1014.9
20260506221504 73 235 5.2 11.3 0.00 0.00 0.00 1015.6
20260506221002 74 225 5.2 13.0 0.00 0.00 0.00 1015.6
20260506220503 73 190 5.2 14.8 0.00 0.00 0.00 1015.3
20260506220003 73 226 7.0 14.8 0.00 0.00 0.00 1014.9
20260506215503 72 217 6.1 13.0 0.00 0.00 0.00 1015.3
20260506215002 72 233 6.1 12.2 0.00 0.00 0.00 1015.6
20260506214501 72 234 9.6 12.2 0.00 0.00 0.00 1015.6
20260506214002 73 231 7.0 12.2 0.00 0.00 0.00 1015.3
20260506213502 73 210 5.2 12.2 0.00 0.00 0.00 1015.3
20260506213001 73 233 6.1 12.2 0.00 0.00 0.00 1015.3
20260506212524 73 218 5.2 10.4 0.00 0.00 0.00 1015.6
20260506212023 72 232 7.0 11.3 0.00 0.00 0.00 1015.6
20260506211502 73 221 5.2 12.2 0.00 0.00 0.00 1015.6
20260506211002 72 235 7.0 12.2 0.00 0.00 0.00 1016.0
20260506210523 74 210 6.1 10.4 0.00 0.00 0.00 1015.3
20260506210001 73 210 5.2 10.4 0.00 0.00 0.00 1015.3
20260506205503 72 192 4.3 10.4 0.00 0.00 0.00 1015.3
20260506205003 73 222 4.3 9.6 0.00 0.00 0.00 1015.3
20260506204503 72 218 4.3 9.6 0.00 0.00 0.00 1015.6
20260506204024 72 227 4.3 9.6 0.00 0.00 0.00 1016.0
20260506203502 73 176 4.3 10.4 0.00 0.00 0.00 1016.0
20260506203002 72 197 6.1 10.4 0.00 0.00 0.00 1016.3
20260506202502 71 253 4.3 9.6 0.00 0.00 0.00 1016.6
20260506202002 72 213 4.3 10.4 0.00 0.00 0.00 1016.6
20260506201523 73 222 7.0 13.9 0.00 0.00 0.00 1016.3
20260506201023 73 183 5.2 13.9 0.00 0.00 0.00 1016.0
20260506200523 72 225 6.1 12.2 0.00 0.00 0.00 1016.0
20260506200003 73 190 5.2 9.6 0.00 0.00 0.00 1016.0
20260506195503 73 138 3.5 9.6 0.00 0.00 0.00 1016.0
20260506195002 72 201 5.2 10.4 0.00 0.00 0.00 1016.3
20260506194502 71 205 6.1 10.4 0.00 0.00 0.00 1016.0
20260506194003 71 225 5.2 10.4 0.00 0.00 0.00 1016.0
20260506193501 70 215 5.2 11.3 0.00 0.00 0.00 1016.3
20260506193002 70 142 3.5 11.3 0.00 0.00 0.00 1016.3
20260506192501 70 222 5.2 8.7 0.00 0.00 0.00 1016.6
20260506192003 71 227 3.5 8.7 0.00 0.00 0.00 1016.3
20260506191501 71 222 4.3 8.7 0.00 0.00 0.00 1016.6
20260506191023 71 167 4.3 8.7 0.00 0.00 0.00 1016.6
20260506190502 70 228 5.2 9.6 0.00 0.00 0.00 1016.6
20260506190023 70 206 4.3 9.6 0.00 0.00 0.00 1017.6
20260506185523 70 218 5.2 10.4 0.00 0.00 0.00 1017.0
20260506185002 72 225 7.0 10.4 0.00 0.00 0.00 1017.0
20260506184502 72 180 3.5 9.6 0.00 0.00 0.00 1017.3
20260506184002 71 196 3.5 8.7 0.00 0.00 0.00 1016.6
20260506183501 71 194 4.3 8.7 0.00 0.00 0.00 1017.0
20260506183002 70 250 1.7 9.6 0.00 0.00 0.00 1017.0
20260506182501 71 179 4.3 9.6 0.00 0.00 0.00 1017.3
20260506182002 70 206 5.2 11.3 0.00 0.00 0.00 1017.0
20260506181502 70 185 4.3 11.3 0.00 0.00 0.00 1016.6
20260506181023 69 207 5.2 10.4 0.00 0.00 0.00 1017.3
20260506180523 68 221 3.5 7.8 0.00 0.00 0.00 1017.0
20260506180002 68 234 2.6 8.7 0.00 0.00 0.00 1016.6
20260506175523 67 200 3.5 9.6 0.00 0.00 0.00 1017.3
20260506175002 66 265 5.2 9.6 0.00 0.00 0.00 1017.0
20260506174501 67 246 2.6 6.1 0.00 0.00 0.00 1017.0
20260506174002 67 118 1.7 7.0 0.00 0.00 0.00 1017.3
20260506173502 66 314 0.9 7.0 0.00 0.00 0.00 1017.0
20260506173002 65 193 3.5 7.0 0.00 0.00 0.00 1017.0
20260506172502 65 270 1.7 4.3 0.00 0.00 0.00 1017.6
20260506172002 66 0 0.9 5.2 0.00 0.00 0.00 1017.3
20260506171524 66 79 3.5 7.8 0.00 0.00 0.00 1017.3
20260506171003 66 75 3.5 7.8 0.00 0.00 0.00 1017.0
20260506170502 65 72 1.7 4.3 0.00 0.00 0.00 1016.3
20260506170002 65 354 1.7 6.1 0.00 0.00 0.00 1016.6
20260506165502 65 89 3.5 6.1 0.00 0.00 0.00 1017.0
20260506165003 65 85 3.5 6.1 0.00 0.00 0.00 1017.0
20260506164502 65 100 2.6 6.1 0.00 0.00 0.00 1017.0
20260506164024 65 80 3.5 6.1 0.00 0.00 0.00 1016.6
20260506163502 65 121 1.7 4.3 0.00 0.00 0.00 1017.0
20260506163002 64 129 1.7 6.1 0.00 0.00 0.00 1017.3
20260506162502 64 169 2.6 6.1 0.00 0.00 0.00 1016.6
20260506162002 63 240 1.7 3.5 0.00 0.00 0.00 1017.0
20260506161523 62 92 1.7 5.2 0.00 0.00 0.00 1016.6
20260506161024 62 86 0.9 5.2 0.00 0.00 0.00 1017.0
20260506160501 62 85 1.7 5.2 0.00 0.00 0.00 1017.3
20260506160002 62 103 2.6 4.3 0.00 0.00 0.00 1017.0
20260506155502 62 74 1.7 4.3 0.00 0.00 0.00 1017.3
20260506155003 61 266 0.9 6.1 0.00 0.00 0.00 1016.6
20260506154501 61 68 2.6 6.1 0.00 0.00 0.00 1017.0
20260506154003 61 73 2.6 7.0 0.00 0.00 0.00 1017.0
20260506153523 61 69 1.7 7.0 0.00 0.00 0.00 1017.0
20260506153002 61 22 1.7 4.3 0.00 0.00 0.00 1017.3
20260506152502 61 84 2.6 4.3 0.00 0.00 0.00 1017.0
20260506152002 60 80 3.5 4.3 0.00 0.00 0.00 1017.3
20260506151504 60 91 2.6 4.3 0.00 0.00 0.00 1017.6
20260506151025 60 83 1.7 5.2 0.00 0.00 0.00 1017.0
20260506150502 59 63 1.7 5.2 0.00 0.00 0.00 1017.3
20260506150002 59 69 1.7 4.3 0.00 0.00 0.00 1017.0
20260506145502 58 128 1.7 4.3 0.00 0.00 0.00 1017.0
20260506145002 58 103 2.6 4.3 0.00 0.00 0.00 1017.3
20260506144523 58 71 2.6 4.3 0.00 0.00 0.00 1017.0
20260506144024 57 71 1.7 3.5 0.00 0.00 0.00 1017.0
20260506143502 57 78 1.7 3.5 0.00 0.00 0.00 1016.6
20260506143002 56 74 0.9 5.2 0.00 0.00 0.00 1017.0
20260506142524 56 85 1.7 5.2 0.00 0.00 0.00 1016.6
20260506142003 55 74 2.6 4.3 0.00 0.00 0.00 1016.6
20260506141523 55 66 2.6 3.5 0.00 0.00 0.00 1016.6
20260506141003 55 72 1.7 4.3 0.00 0.00 0.00 1016.6
20260506140502 55 19 1.7 4.3 0.00 0.00 0.00 1016.6
20260506140002 55 59 2.6 4.3 0.00 0.00 0.00 1016.6
20260506135502 55 54 1.7 2.6 0.00 0.00 0.00 1016.6
20260506135003 54 61 0.9 2.6 0.00 0.00 0.00 1016.6
20260506134502 54 53 0.9 2.6 0.00 0.00 0.00 1016.6
20260506134002 54 73 1.7 3.5 0.00 0.00 0.00 1017.0
20260506133501 54 42 1.7 3.5 0.00 0.00 0.00 1016.6
20260506133002 54 46 0.9 1.7 0.00 0.00 0.00 1016.6
20260506132502 54 55 0.9 1.7 0.00 0.00 0.00 1016.6
20260506132003 54 360 0.0 0.9 0.00 0.00 0.00 1017.0
20260506131502 54 158 0.0 1.7 0.00 0.00 0.00 1016.3
20260506131002 54 158 0.0 1.7 0.00 0.00 0.00 1016.3
20260506130501 54 96 0.9 1.7 0.00 0.00 0.00 1016.0
20260506130002 54 113 0.9 2.6 0.00 0.00 0.00 1015.6
20260506125503 54 87 0.9 2.6 0.00 0.00 0.00 1016.0
20260506125004 54 110 0.9 2.6 0.00 0.00 0.00 1016.3
20260506124502 54 113 0.9 2.6 0.00 0.00 0.00 1016.6
20260506124004 54 113 0.9 2.6 0.00 0.00 0.00 1016.6
20260506123524 54 113 1.7 2.6 0.00 0.00 0.00 1016.6
20260506123002 54 81 0.9 2.6 0.00 0.00 0.00 1016.3
20260506122503 54 84 1.7 2.6 0.00 0.00 0.00 1017.0
20260506122001 54 88 0.9 1.7 0.00 0.00 0.00 1016.6
20260506121502 54 90 0.9 1.7 0.00 0.00 0.00 1016.6
20260506121002 54 90 0.0 1.7 0.00 0.00 0.00 1016.6
20260506120502 54 77 0.9 1.7 0.00 0.00 0.00 1016.3
20260506120002 54 44 0.9 1.7 0.00 0.00 0.00 1016.0
20260506115501 54 54 0.9 2.6 0.00 0.00 0.00 1016.3
20260506115003 54 62 1.7 2.6 0.00 0.00 0.00 1016.3
20260506114502 54 76 1.7 2.6 0.00 0.00 0.00 1016.3
20260506114003 54 82 1.7 2.6 0.00 0.00 0.00 1016.0
20260506113502 55 91 1.7 2.6 0.00 0.00 0.00 1015.6
20260506113001 55 68 0.9 2.6 0.00 0.00 0.00 1015.6
20260506112503 55 76 0.9 2.6 0.00 0.00 0.00 1016.0
20260506112003 55 90 1.7 2.6 0.00 0.00 0.00 1015.6
20260506111502 55 85 1.7 3.5 0.00 0.00 0.00 1016.3
20260506111002 55 74 1.7 3.5 0.00 0.00 0.00 1016.0
20260506110502 55 88 1.7 2.6 0.00 0.00 0.00 1016.6
20260506110001 55 87 0.9 2.6 0.00 0.00 0.00 1016.0
20260506105502 55 87 1.7 2.6 0.00 0.00 0.00 1016.0
20260506105001 55 97 1.7 1.7 0.00 0.00 0.00 1016.0
20260506104502 56 68 0.9 1.7 0.00 0.00 0.00 1016.0
20260506104002 56 44 0.9 1.7 0.00 0.00 0.00 1016.3
20260506103502 56 42 0.9 1.7 0.00 0.00 0.00 1016.0
20260506103001 56 46 0.9 1.7 0.00 0.00 0.00 1016.3
20260506102523 56 68 0.9 1.7 0.00 0.00 0.00 1016.0
20260506102023 56 64 0.9 1.7 0.00 0.00 0.00 1016.0
20260506101502 56 49 0.9 1.7 0.00 0.00 0.00 1016.3
20260506101003 56 82 0.9 2.6 0.00 0.00 0.00 1016.3
20260506100501 56 46 0.9 2.6 0.00 0.00 0.00 1016.3
20260506100002 56 63 1.7 1.7 0.00 0.00 0.00 1016.3
20260506095504 56 44 1.7 2.6 0.00 0.00 0.00 1016.6
20260506095002 56 44 0.9 2.6 0.00 0.00 0.00 1016.6
20260506094502 56 41 0.9 1.7 0.00 0.00 0.00 1016.6
20260506094001 56 113 0.9 0.9 0.00 0.00 0.00 1016.0
20260506093503 56 113 0.0 0.0 0.00 0.00 0.00 1016.0
20260506093023 56 113 0.0 0.0 0.00 0.00 0.00 1016.0
20260506092503 56 113 0.0 0.9 0.00 0.00 0.00 1016.0
20260506092002 56 113 0.0 0.9 0.00 0.00 0.00 1015.6
20260506091502 56 113 0.0 1.7 0.00 0.00 0.00 1016.3
20260506091002 56 114 0.9 1.7 0.00 0.00 0.00 1016.0
20260506090502 56 137 0.9 1.7 0.00 0.00 0.00 1016.0
20260506090002 56 158 0.9 1.7 0.00 0.00 0.00 1016.3
20260506085502 57 158 0.9 1.7 0.00 0.00 0.00 1016.6
20260506085002 57 158 0.9 1.7 0.00 0.00 0.00 1016.3
20260506084502 57 158 0.9 1.7 0.00 0.00 0.00 1016.0
20260506084024 57 158 0.9 1.7 0.00 0.00 0.00 1016.6
20260506083503 57 174 0.9 1.7 0.00 0.00 0.00 1016.6
20260506083001 57 180 0.0 1.7 0.00 0.00 0.00 1016.3
20260506082502 57 156 0.9 2.6 0.00 0.00 0.00 1016.3
20260506082002 57 163 0.9 2.6 0.00 0.00 0.00 1016.3
20260506081501 57 161 0.9 1.7 0.00 0.00 0.00 1016.3
20260506081003 57 137 0.9 1.7 0.00 0.00 0.00 1016.3
20260506080524 57 122 0.9 2.6 0.00 0.00 0.00 1016.6
20260506073503 58 99 0.9 2.6 0.00 0.00 0.00 1016.6
20260506073002 58 113 0.0 2.6 0.00 0.00 0.00 1017.0
20260506072523 58 127 1.7 2.6 0.00 0.00 0.00 1017.0
20260506072002 58 98 0.9 2.6 0.00 0.00 0.00 1017.3
20260506071502 58 97 0.9 2.6 0.00 0.00 0.00 1017.0
20260506071002 58 90 0.9 2.6 0.00 0.00 0.00 1017.3
20260506070502 58 93 0.9 2.6 0.00 0.00 0.00 1017.0
20260506062503 59 112 0.0 1.7 0.00 0.00 0.00 1016.0
20260506062002 59 113 0.9 1.7 0.00 0.00 0.00 1016.0
20260506061503 59 100 0.9 1.7 0.00 0.00 0.00 1016.3
20260506061002 59 129 0.9 2.6 0.00 0.00 0.00 1016.0
20260506060523 59 107 1.7 2.6 0.00 0.00 0.00 1016.0
20260506051002 60 234 0.9 2.6 0.00 0.00 0.00 1016.0
20260506050523 60 202 0.0 2.6 0.00 0.00 0.00 1015.6
20260506045002 61 202 1.7 3.5 0.00 0.00 0.00 1015.6
20260506044504 61 209 1.7 3.5 0.00 0.00 0.00 1015.6
20260506044003 61 203 0.9 3.5 0.00 0.00 0.00 1015.6
20260506043502 61 216 1.7 3.5 0.00 0.00 0.00 1015.3
20260506043002 61 214 1.7 3.5 0.00 0.00 0.00 1015.3
20260506042524 61 209 1.7 3.5 0.00 0.00 0.00 1015.3
20260506042024 61 217 1.7 2.6 0.00 0.00 0.00 1014.9
20260506041502 62 205 1.7 4.3 0.00 0.00 0.00 1015.3
20260506041002 62 207 2.6 4.3 0.00 0.00 0.00 1015.3
20260506040502 62 205 1.7 3.5 0.00 0.00 0.00 1014.9
20260506040023 62 205 2.6 4.3 0.00 0.00 0.00 1015.3
20260506035524 62 205 2.6 4.3 0.00 0.00 0.00 1014.9
20260506035003 62 215 2.6 4.3 0.00 0.00 0.00 1014.9
20260506034502 62 207 1.7 3.5 0.00 0.00 0.00 1014.9
20260506034002 62 219 0.9 3.5 0.00 0.00 0.00 1014.3